User: anonymous   Login
Location: Brno
(49.2000°N, 16.6330°E)
Time: 23:01:49
(UTC+01:00)
Language:

Cosmos 1603 - Orbit

View from above orbital plane
View from above orbital plane
View from above satellite
View from above satellite

Ground track
Ground track

The orbit data is extracted from the following two-line orbital elements,

1 15333U 84106A   17327.86678267 -.00000107  00000-0 -31100-4 0  9993
2 15333  71.0261 118.0079 0021467 318.9031  41.0473 14.14068805710830
Epoch (UTC): 23 November 2017 20:48:10
Eccentricity: 0.0021467
inclination: 71.0261°
perigee height: 830 km
apogee height: 861 km
right ascension of ascending node: 118.0079°
argument of perigee: 318.9031°
revolutions per day: 14.14068805
mean anomaly at epoch: 41.0473°
orbit number at epoch: 71083

The dashed part of the orbit path shows where the satellite is in the earth's shadow,  

DLR